Flag Weather past 2 weeks in Kuala Lumpur, Malaysia

Now
86 °F

Broken clouds.


Feels Like: 95 °F
Forecast: 75 / 89 °F
Wind: 8 mph from Northwest

Location: Sultan Abdul Aziz Shah-Subang

Current Time: Oct 31, 2014 at 1:55:46 PM

Latest Report: Oct 31, 2014 at 1:00 PM


Visibility: N/A

Pressure: 29.80 "Hg

Humidity: 70%

Dew point: 75 °F

Location of Kuala LumpurLocation

Historic Weather in Kuala Lumpur — Graph

°F

Kuala Lumpur temperature yesterday

Maximum temperature yesterday: 90 °F (at 12:00 PM)
Minimum temperature yesterday: 77 °F (at 2:00 AM)
Average temperature yesterday: 82 °F

Past Weeks' High & Low Weather Summary

 TemperatureHumidityPressure
High93 °F (Oct 16, 1:00 PM)100% (Oct 21, 2:00 AM)29.95 "Hg (Oct 21, 2:00 AM)
Low73 °F (Oct 19, 6:00 AM)52% (Oct 25, 2:00 PM)29.71 "Hg (Oct 16, 4:00 PM)
Average81 °F84%29.84 "Hg
* Reported Oct 16 12:00 Noon — Oct 31 12:00 Noon, Kuala Lumpur, Weather by CustomWeather, © 2014

Note: Actual official high and low records may vary slightly from our data, if they occured in-between our weather recording intervals... More about our weather records

Advertising

Kuala Lumpur weather history for previous 24 hours

 ConditionsComfort  
Time TempWeatherWind HumidityBarometerVisibility
12:00 PM
Oct 31
86 °FBroken clouds.8 mph75%29.83 "HgN/A
11:00 AM84 °FBroken clouds.7 mph79%29.83 "Hg6 mi
10:00 AM81 °FPartly sunny.9 mph89%29.86 "Hg4 mi
9:00 AM81 °FPartly sunny.1 mph84%29.83 "Hg4 mi
8:00 AM79 °FPartly sunny.No wind94%29.80 "Hg3 mi
7:00 AM79 °FBroken clouds.1 mph89%29.80 "Hg4 mi
6:00 AM79 °FPartly cloudy.2 mph94%29.77 "Hg4 mi
5:00 AM79 °FPartly cloudy.1 mph89%29.77 "Hg4 mi
4:00 AM79 °FPartly cloudy.1 mph94%29.77 "Hg4 mi
3:00 AM79 °FPartly cloudy.No wind89%29.80 "Hg4 mi
2:00 AM79 °FMostly cloudy.No wind89%29.80 "Hg2 mi
1:00 AM81 °FLight rain. Mostly cloudy.1 mph89%29.83 "Hg2 mi
12:00 AM81 °FPartly cloudy.1 mph89%29.83 "Hg2 mi
11:00 PM
Oct 30
81 °FLight rain. Partly cloudy.3 mph89%29.83 "Hg4 mi
10:00 PM82 °FPartly cloudy.6 mph79%29.83 "Hg5 mi
9:00 PM82 °FPartly cloudy.5 mph84%29.83 "HgN/A
8:00 PM82 °FPassing clouds.3 mph84%29.80 "HgN/A
7:00 PM84 °FPartly cloudy.3 mph79%29.77 "Hg5 mi
6:00 PM84 °FBroken clouds.5 mph79%29.74 "Hg6 mi
5:00 PM84 °FBroken clouds.6 mph79%29.74 "Hg5 mi
4:00 PM86 °FBroken clouds.6 mph70%29.74 "Hg6 mi
3:00 PM86 °FBroken clouds.5 mph70%29.74 "Hg4 mi
2:00 PM88 °FBroken clouds.7 mph66%29.77 "Hg6 mi
1:00 PM86 °FThunderstorms. Broken clouds.13 mph70%29.83 "Hg4 mi
Weather by CustomWeather, © 2014

See weather overviewHow to use our weather pages